SCP
0 0 0 0 0 0 0 0 0 0 0 0 0 0 0 0 0 0 0 0 0 0 -0 -0 -0 0 0 0 0 0 0 0 0 0 0 0 0 0 0 0 0 0 0 0
0 0 0 0 0 0 0 0 0 0 0 0 0 0 0 0 0 0 0 0 -0 -0 -0 -0 -0 0 0 0 0 0 0 0 0 0 0 0 0 0 0 0 0 0 0 0
0 0 0 0 0 0 0 0 0 0 0 0 0 0 0 0 0 0 0 0 -0 -0 -0 0 0 0 0 0 0 0 0 0 0 0 0 0 0 0 0 0 0 0 0 0
0 0 0 0 0 0 0 0 0 0 0 0 0 0 0 0 0 0 0 -0 -0 -0 0 0 0 0 0 0 0 0 0 0 0 0 0 0 0 0 0 0 0 0 0 0
0 0 0 0 0 0 0 0 0 0 0 0 0 0 0 0 0 0 0 -0 -0 0 0 0 0 0 0 0 0 0 0 0 0 0 0 0 0 0 0 0 0 0 -0 -0
0 0 0 0 0 0 0 0 0 0 0 0 0 0 0 0 0 0 0 0 0 0 0 0 0 0 0 0 0 0 0 0 0 0 0 0 0 0 0 0 -0 -0 -0 -0
0 0 0 0 0 0 0 0 0 0 0 0 0 0 0 0 0 0 0 0 0 0 0 0 0 0 0 0 0 0 0 0 -0 -0 0 -0 -0 0 -0 -0 -0 -0 -0 -0
0 0 0 0 0 0 0 0 0 0 0 0 0 0 0 0 0 0 0 0 0 0 0 0 0 0 0 0 0 0 -0 -0 -0 0 0 0 0 -0 -0 -0 -0 -0 -0 -0
0 0 0 0 0 0 0 0 0 0 0 0 0 0 0 0 0 0 0 0 0 0 0 0 0 0 0 0 0 0 -0 -0 -0 -0 0 -0 -0 -0 0 0 -0 -0 -0 -0
0 0 0 0 0 0 0 0 0 0 0 0 0 0 0 0 0 0 0 0 0 0 0 0 0 0 0 0 0 0 0 0 -0 -0 -0 0 0 0 0 0 0 0 0 0
0 0 0 0 0 0 0 0 0 0 0 0 0 0 0 0 0 0 0 0 0 0 0 0 0 0 0 0 0 0 0 0 0 0 0 0 0 0 0 0 0 0 0 0
0 0 0 0 0 0 0 0 0 0 0 0 0 0 0 0 0 0 0 0 0 0 0 0 0 0 0 0 0 0 0 0 0 0 0 0 0 0 0 0 0 0 0 0
0 0 0 0 0 0 0 0 0 0 0 0 0 0 0 0 0 0 0 0 0 0 0 0 0 0 0 0 0 0 0 0 0 0 0 0 0 0 0 0 0 0 0 -0
0 0 0 0 0 0 0 0 0 0 0 0 0 0 0 0 0 0 0 0 0 0 0 0 0 0 0 0 0 0 0 0 0 0 0 0 0 0 0 0 0 0 0 0
0 0 0 0 0 0 0 0 0 0 0 0 0 0 0 0 0 0 0 0 0 0 0 0 0 0 0 0 0 0 0 0 0 0 0 0 0 0 0 0 0 0 0 0
0 0 0 0 0 0 0 0 0 0 0 0 0 0 -0 -0 0 0 0 0 0 0 0 0 0 0 -0 0 0 0 0 0 0 0 0 0 0 0 0 0 0 0 0 0
0 0 0 0 0 0 0 0 0 0 0 0 0 0 0 0 0 -0 0 0 0 0 0 0 0 0 0 -0 0 0 0 0 0 0 0 0 0 0 0 0 0 0 0 0
0 0 0 0 0 0 0 0 0 0 0 0 0 0 0 0 0 0 0 0 0 0 0 0 0 0 0 0 0 -0 0 0 0 0 0 0 0 0 0 0 0 0 0 0
0 0 0 0 0 0 0 0 0 0 0 0 0 0 0 0 -0 0 0 -0 -0 0 0 0 -0 0 0 0 0 -0 0 -0 0 0 0 0 0 0 0 0 0 0 0 0
0 0 0 0 0 0 0 0 0 0 0 0 0 -0 0 0 -0 -0 -0 -0 0 0 0 0 0 0 0 0 0 0 0 0 0 0 0 0 0 0 0 0 0 0 0 0
0 0 0 0 0 0 0 0 0 0 0 0 0 -0 0 -0 -0 -0 -0 -0 0 0 0 0 0 0 0 0 0 0 0 0 0 0 0 0 0 0 0 0 0 0 0 0
0 0 0 0 0 0 0 0 0 0 0 0 0 0 0 -0 -0 -0 -0 0 0 -0 0 0 0 0 0 0 0 0 0 0 0 0 0 0 0 0 0 0 0 0 0 0
0 0 0 0 0 0 0 0 0 0 0 0 0 0 0 0 0 -0 -0 -0 -0 -0 0 0 0 0 0 0 0 0 -0 0 0 0 0 0 0 0 0 0 0 0 0 0
0 0 0 0 0 0 0 0 0 0 0 0 0 -0 -0 0 0 0 0 -0 -0 -0 0 0 0 0 0 0 0 0 0 0 0 0 0 0 0 0 0 0 0 0 0 0
0 0 0 0 0 0 0 0 0 0 0 0 0 -0 -0 0 0 0 0 -0 0 -0 0 0 0 0 0 0 -0 0 0 0 0 0 0 0 0 0 0 0 0 0 0 0
0 0 0 0 0 0 0 0 0 0 0 0 0 -0 -0 0 0 0 0 -0 -0 -0 0 0 0 0 0 0 -0 0 0 0 0 0 0 0 0 0 0 0 0 0 0 0
0 0 0 0 0 0 0 0 0 0 0 0 -0 0 0 0 0 0 -0 -0 0 -0 0 0 0 0 0 0 0 -0 0 0 0 0 0 0 0 0 0 0 0 0 0 0
Wind_Speed_500mb
18 18 17 23 26 23 26 27 29 36 37 35 29 36 49 49 58 63 67 68 70 74 81 87 81 70 63 55 50 53 57 60 65 63 61 59 56 57 54 53 51 56 55 54
20 19 22 28 28 27 25 26 30 31 34 29 44 43 52 52 58 66 66 73 78 86 88 82 72 65 57 57 61 60 65 71 61 62 62 56 56 57 56 56 54 55 56 53
13 3 18 24 18 16 13 18 21 26 32 39 35 45 51 59 63 58 75 81 85 88 83 72 63 61 77 70 67 68 66 64 58 60 55 54 54 53 55 55 50 54 55 52
14 12 14 11 4 5 13 18 22 28 29 29 45 48 56 61 58 71 76 80 86 83 75 65 65 76 73 70 67 61 60 59 57 54 51 55 52 51 52 48 51 49 49 49
8 12 25 21 9 6 3 24 33 18 23 40 46 51 52 53 65 68 70 78 81 74 66 72 75 73 70 66 62 57 60 54 52 51 50 50 52 47 46 45 45 42 41 42
7 10 9 11 13 5 5 13 7 19 31 37 47 27 33 69 70 72 74 78 74 65 69 74 73 69 65 63 62 57 57 52 50 47 45 45 43 42 44 39 38 34 36 39
16 13 14 12 16 9 7 9 26 32 32 38 34 49 65 68 71 75 76 77 67 63 73 73 71 62 58 58 54 52 47 45 41 39 38 37 40 41 40 40 38 33 33 34
9 9 14 20 18 9 12 30 34 31 35 42 49 56 63 68 71 72 78 73 57 71 74 71 61 55 60 57 53 46 44 39 34 33 31 33 36 41 36 35 37 36 32 29
12 5 10 28 17 19 26 32 32 31 37 42 49 58 63 67 69 74 71 57 65 69 71 66 56 58 61 55 49 46 39 34 33 25 26 32 26 26 25 26 25 19 20 18
4 10 23 21 22 26 25 26 26 31 36 41 51 56 61 66 69 71 58 53 64 65 67 66 59 55 51 45 44 32 30 27 27 25 25 22 23 27 20 19 15 14 12 9
20 28 24 20 14 18 19 20 27 31 37 44 51 53 57 64 67 58 48 59 59 62 60 62 57 50 48 40 38 30 23 24 28 20 26 20 24 23 20 16 11 9 7 8
9 3 9 10 10 13 18 25 27 32 39 44 45 49 54 59 59 48 52 56 59 59 57 57 52 45 44 38 35 24 19 32 28 28 27 22 22 19 21 16 12 13 19 18
7 8 10 11 15 15 17 23 26 31 37 40 39 44 50 57 53 46 52 52 55 57 55 52 48 39 36 34 28 18 23 31 31 31 30 22 19 21 22 19 19 21 21 20
18 11 14 12 12 12 17 20 24 31 36 34 39 46 51 55 48 43 49 51 54 52 51 47 43 35 28 27 28 17 18 24 28 26 26 21 21 21 24 26 32 40 37 34
22 19 16 11 12 13 17 22 29 35 36 38 40 47 54 51 45 43 48 52 51 50 44 42 40 33 23 20 19 19 19 22 21 22 20 16 18 19 21 24 32 42 40 39
21 16 13 12 12 14 22 27 29 33 36 35 42 48 52 43 40 41 48 49 48 46 42 41 38 30 23 18 17 17 19 18 17 17 15 14 19 19 20 23 27 32 36 29
21 16 14 12 11 18 22 26 29 31 30 33 41 46 47 38 36 43 49 47 42 38 38 35 32 29 25 20 18 18 14 12 9 11 13 12 17 17 22 22 24 24 26 26
19 13 10 8 11 14 20 27 28 25 26 34 39 44 40 34 38 45 49 45 41 38 34 30 28 28 27 23 17 13 11 5 5 3 7 13 16 19 19 24 23 25 24 21
21 15 11 9 8 12 20 27 24 22 24 31 37 43 35 32 34 41 44 41 41 42 35 31 28 28 28 24 16 11 8 3 1 5 7 15 16 21 16 20 25 22 22 27
21 16 13 10 10 15 20 23 26 21 23 32 36 40 34 32 33 40 41 41 39 34 28 28 28 27 25 21 14 10 8 5 3 5 11 17 20 21 20 24 24 21 23 27
20 16 13 12 12 16 24 29 25 20 25 28 35 37 30 32 31 37 41 45 41 31 24 24 27 27 23 17 17 15 13 12 9 7 10 19 23 22 24 24 25 22 24 28
20 16 14 14 15 18 23 28 26 25 23 29 34 33 27 31 29 34 35 39 38 30 25 24 26 25 22 15 15 14 12 15 11 14 15 23 25 23 24 25 26 27 25 28
18 15 14 14 16 19 29 26 22 23 24 29 33 28 26 28 27 33 40 38 32 28 21 23 23 21 15 21 19 12 16 15 15 19 19 24 23 22 26 27 24 23 31 45
17 14 13 14 17 21 21 19 21 22 23 28 30 24 25 27 25 25 29 30 26 22 19 21 20 20 16 13 16 12 15 15 18 18 23 26 23 24 26 23 23 31 43 53
16 15 17 20 23 24 16 16 20 21 25 28 28 20 19 21 25 26 26 22 20 18 19 18 19 23 24 23 23 17 18 19 21 24 29 31 25 29 25 26 36 47 57 59
16 16 16 18 17 14 13 14 19 22 24 23 22 21 17 18 19 20 17 16 17 17 18 19 18 21 26 27 26 24 26 19 18 21 25 32 33 28 42 39 43 57 56 41
14 11 10 11 12 11 10 16 18 23 25 23 18 21 14 15 16 15 12 14 18 21 20 18 18 22 28 28 30 26 28 19 12 33 37 42 37 44 49 48 47 57 52 45
Wind_Direction_500mb
266 278 266 274 278 277 265 268 278 293 302 311 335 326 314 314 318 317 317 319 319 319 318 317 313 309 306 304 299 297 294 292 293 296 296 293 285 288 290 287 275 272 267 263
271 259 269 270 270 269 269 277 282 291 293 329 329 312 321 321 320 315 318 319 317 318 318 317 313 309 307 303 302 301 294 300 297 298 300 295 292 289 283 285 274 270 268 262
281 257 284 270 258 249 271 281 288 290 303 318 320 319 318 322 315 324 324 321 319 318 319 317 312 308 311 314 312 307 305 304 301 301 299 297 292 286 282 285 279 271 269 267
280 287 251 76 71 327 279 291 285 293 306 312 313 314 320 314 331 327 321 320 319 319 317 313 310 317 318 317 315 312 312 310 307 305 298 298 296 292 292 288 284 279 268 267
264 280 285 224 212 213 203 285 295 284 307 312 314 317 313 332 328 322 324 320 319 316 314 311 321 322 320 318 318 313 316 314 308 307 303 298 297 298 296 292 288 279 270 262
233 264 277 84 148 144 297 287 130 285 306 315 319 316 319 330 324 324 324 323 321 316 314 325 326 327 323 320 319 317 321 318 312 304 297 296 297 297 303 295 291 289 277 272
242 247 267 124 159 164 247 304 321 314 310 313 314 317 318 322 323 323 324 324 322 318 328 328 330 329 327 328 325 324 318 319 312 304 302 298 299 302 304 302 298 282 272 272
234 248 251 151 163 214 282 305 305 305 308 311 314 317 320 323 323 326 326 325 324 333 336 338 340 339 335 333 334 333 329 323 319 318 308 309 308 314 308 297 288 291 289 287
213 272 116 187 248 276 287 289 299 305 311 312 315 319 323 323 325 326 325 323 329 339 338 341 345 344 339 337 333 322 327 328 326 326 322 314 316 321 315 316 309 298 293 298
254 229 233 251 260 276 285 287 294 308 312 316 318 321 321 324 325 326 324 323 338 341 341 342 347 343 343 342 346 340 341 344 348 333 341 346 345 338 325 332 319 313 315 318
246 266 266 265 262 284 295 295 301 311 315 320 321 319 322 324 326 323 324 331 340 344 343 343 343 346 352 353 352 354 358 349 351 350 344 350 351 5 8 15 10 2 25 73
237 230 230 281 285 290 292 306 312 315 319 320 320 319 323 324 324 323 323 336 340 342 343 344 345 347 354 358 2 4 6 353 3 8 4 1 4 22 27 35 49 67 72 81
246 224 241 271 283 286 294 307 312 316 319 318 321 322 324 325 325 325 327 341 339 342 341 341 342 347 353 358 0 2 351 3 9 8 2 20 43 39 42 76 74 69 76 85
212 221 255 253 286 301 299 307 313 319 320 318 319 323 326 327 326 328 331 341 341 341 339 339 343 348 350 358 5 357 351 354 360 0 9 34 52 56 64 88 84 82 82 83
208 221 251 272 287 297 301 314 316 321 323 322 324 328 329 327 327 328 336 344 343 343 342 343 344 347 351 355 360 5 4 358 359 357 20 40 52 65 68 86 94 92 95 92
202 208 219 249 282 297 309 317 319 319 323 323 327 330 329 327 327 330 344 349 347 347 348 348 348 351 350 351 344 342 341 347 5 17 36 48 47 69 90 92 96 99 100 102
189 200 217 254 276 307 318 321 316 314 319 325 327 330 331 332 336 340 349 351 352 358 359 356 357 359 357 349 339 336 340 356 22 23 55 69 64 78 96 100 104 102 104 103
204 196 209 250 290 306 320 329 319 315 319 327 329 333 334 335 337 344 350 352 358 7 12 8 6 6 3 354 347 341 338 336 338 15 77 89 83 85 102 107 107 109 108 105
180 185 209 238 262 305 320 323 320 316 325 330 333 336 334 332 338 344 350 356 1 1 8 8 5 5 8 6 4 4 12 50 60 101 129 122 112 108 109 112 114 108 113 113
179 195 213 234 274 307 321 321 324 319 323 331 335 336 335 336 340 345 352 2 4 356 357 2 5 7 11 14 19 27 29 29 57 131 150 140 148 128 117 113 110 103 110 118
188 205 227 256 287 306 319 324 320 318 324 331 334 333 332 340 342 345 354 358 3 0 1 4 9 11 15 24 56 55 57 58 59 95 127 148 151 146 136 130 121 115 125 130
199 215 240 256 286 296 311 319 314 319 325 329 335 331 329 338 346 346 358 356 359 3 7 10 11 14 17 63 58 55 63 53 78 96 116 136 143 142 136 129 122 129 135 139
210 226 249 271 290 297 313 315 310 316 325 329 332 330 331 339 344 343 349 0 2 7 11 14 17 20 48 70 58 73 81 83 88 91 109 126 132 138 132 123 123 129 142 142
221 240 261 274 294 304 304 296 309 315 324 329 329 327 333 340 350 346 348 0 6 11 20 25 32 40 86 75 28 47 88 89 103 107 110 124 125 145 138 129 134 127 131 135
234 254 275 286 299 304 294 296 319 318 326 329 336 330 335 338 344 347 356 7 17 29 37 43 55 79 71 56 40 75 101 97 87 116 121 136 128 127 141 134 135 133 132 129
252 272 279 287 295 298 290 305 313 321 325 331 329 328 337 348 349 353 7 21 30 42 50 58 69 80 74 57 52 96 95 104 89 117 128 134 129 130 131 112 128 140 138 127
271 274 279 284 289 285 290 304 320 321 325 324 319 310 339 352 357 9 36 48 61 61 56 65 75 83 67 71 68 90 94 93 91 125 121 130 121 128 126 111 119 134 131 115
Wind_Speed_850mb
18 18 17 23 26 23 26 27 29 36 37 35 29 36 49 49 58 63 67 68 70 74 81 87 81 70 63 55 50 53 57 60 65 63 61 59 56 57 54 53 51 56 55 54
20 19 22 28 28 27 25 26 30 31 34 29 44 43 52 52 58 66 66 73 78 86 88 82 72 65 57 57 61 60 65 71 61 62 62 56 56 57 56 56 54 55 56 53
13 3 18 24 18 16 13 18 21 26 32 39 35 45 51 59 63 58 75 81 85 88 83 72 63 61 77 70 67 68 66 64 58 60 55 54 54 53 55 55 50 54 55 52
14 12 14 11 4 5 13 18 22 28 29 29 45 48 56 61 58 71 76 80 86 83 75 65 65 76 73 70 67 61 60 59 57 54 51 55 52 51 52 48 51 49 49 49
8 12 25 21 9 6 3 24 33 18 23 40 46 51 52 53 65 68 70 78 81 74 66 72 75 73 70 66 62 57 60 54 52 51 50 50 52 47 46 45 45 42 41 42
7 10 9 11 13 5 5 13 7 19 31 37 47 27 33 69 70 72 74 78 74 65 69 74 73 69 65 63 62 57 57 52 50 47 45 45 43 42 44 39 38 34 36 39
16 13 14 12 16 9 7 9 26 32 32 38 34 49 65 68 71 75 76 77 67 63 73 73 71 62 58 58 54 52 47 45 41 39 38 37 40 41 40 40 38 33 33 34
9 9 14 20 18 9 12 30 34 31 35 42 49 56 63 68 71 72 78 73 57 71 74 71 61 55 60 57 53 46 44 39 34 33 31 33 36 41 36 35 37 36 32 29
12 5 10 28 17 19 26 32 32 31 37 42 49 58 63 67 69 74 71 57 65 69 71 66 56 58 61 55 49 46 39 34 33 25 26 32 26 26 25 26 25 19 20 18
4 10 23 21 22 26 25 26 26 31 36 41 51 56 61 66 69 71 58 53 64 65 67 66 59 55 51 45 44 32 30 27 27 25 25 22 23 27 20 19 15 14 12 9
20 28 24 20 14 18 19 20 27 31 37 44 51 53 57 64 67 58 48 59 59 62 60 62 57 50 48 40 38 30 23 24 28 20 26 20 24 23 20 16 11 9 7 8
9 3 9 10 10 13 18 25 27 32 39 44 45 49 54 59 59 48 52 56 59 59 57 57 52 45 44 38 35 24 19 32 28 28 27 22 22 19 21 16 12 13 19 18
7 8 10 11 15 15 17 23 26 31 37 40 39 44 50 57 53 46 52 52 55 57 55 52 48 39 36 34 28 18 23 31 31 31 30 22 19 21 22 19 19 21 21 20
18 11 14 12 12 12 17 20 24 31 36 34 39 46 51 55 48 43 49 51 54 52 51 47 43 35 28 27 28 17 18 24 28 26 26 21 21 21 24 26 32 40 37 34
22 19 16 11 12 13 17 22 29 35 36 38 40 47 54 51 45 43 48 52 51 50 44 42 40 33 23 20 19 19 19 22 21 22 20 16 18 19 21 24 32 42 40 39
21 16 13 12 12 14 22 27 29 33 36 35 42 48 52 43 40 41 48 49 48 46 42 41 38 30 23 18 17 17 19 18 17 17 15 14 19 19 20 23 27 32 36 29
21 16 14 12 11 18 22 26 29 31 30 33 41 46 47 38 36 43 49 47 42 38 38 35 32 29 25 20 18 18 14 12 9 11 13 12 17 17 22 22 24 24 26 26
19 13 10 8 11 14 20 27 28 25 26 34 39 44 40 34 38 45 49 45 41 38 34 30 28 28 27 23 17 13 11 5 5 3 7 13 16 19 19 24 23 25 24 21
21 15 11 9 8 12 20 27 24 22 24 31 37 43 35 32 34 41 44 41 41 42 35 31 28 28 28 24 16 11 8 3 1 5 7 15 16 21 16 20 25 22 22 27
21 16 13 10 10 15 20 23 26 21 23 32 36 40 34 32 33 40 41 41 39 34 28 28 28 27 25 21 14 10 8 5 3 5 11 17 20 21 20 24 24 21 23 27
20 16 13 12 12 16 24 29 25 20 25 28 35 37 30 32 31 37 41 45 41 31 24 24 27 27 23 17 17 15 13 12 9 7 10 19 23 22 24 24 25 22 24 28
20 16 14 14 15 18 23 28 26 25 23 29 34 33 27 31 29 34 35 39 38 30 25 24 26 25 22 15 15 14 12 15 11 14 15 23 25 23 24 25 26 27 25 28
18 15 14 14 16 19 29 26 22 23 24 29 33 28 26 28 27 33 40 38 32 28 21 23 23 21 15 21 19 12 16 15 15 19 19 24 23 22 26 27 24 23 31 45
17 14 13 14 17 21 21 19 21 22 23 28 30 24 25 27 25 25 29 30 26 22 19 21 20 20 16 13 16 12 15 15 18 18 23 26 23 24 26 23 23 31 43 53
16 15 17 20 23 24 16 16 20 21 25 28 28 20 19 21 25 26 26 22 20 18 19 18 19 23 24 23 23 17 18 19 21 24 29 31 25 29 25 26 36 47 57 59
16 16 16 18 17 14 13 14 19 22 24 23 22 21 17 18 19 20 17 16 17 17 18 19 18 21 26 27 26 24 26 19 18 21 25 32 33 28 42 39 43 57 56 41
14 11 10 11 12 11 10 16 18 23 25 23 18 21 14 15 16 15 12 14 18 21 20 18 18 22 28 28 30 26 28 19 12 33 37 42 37 44 49 48 47 57 52 45
Wind_Direction_850mb
266 278 266 274 278 277 265 268 278 293 302 311 335 326 314 314 318 317 317 319 319 319 318 317 313 309 306 304 299 297 294 292 293 296 296 293 285 288 290 287 275 272 267 263
271 259 269 270 270 269 269 277 282 291 293 329 329 312 321 321 320 315 318 319 317 318 318 317 313 309 307 303 302 301 294 300 297 298 300 295 292 289 283 285 274 270 268 262
281 257 284 270 258 249 271 281 288 290 303 318 320 319 318 322 315 324 324 321 319 318 319 317 312 308 311 314 312 307 305 304 301 301 299 297 292 286 282 285 279 271 269 267
280 287 251 76 71 327 279 291 285 293 306 312 313 314 320 314 331 327 321 320 319 319 317 313 310 317 318 317 315 312 312 310 307 305 298 298 296 292 292 288 284 279 268 267
264 280 285 224 212 213 203 285 295 284 307 312 314 317 313 332 328 322 324 320 319 316 314 311 321 322 320 318 318 313 316 314 308 307 303 298 297 298 296 292 288 279 270 262
233 264 277 84 148 144 297 287 130 285 306 315 319 316 319 330 324 324 324 323 321 316 314 325 326 327 323 320 319 317 321 318 312 304 297 296 297 297 303 295 291 289 277 272
242 247 267 124 159 164 247 304 321 314 310 313 314 317 318 322 323 323 324 324 322 318 328 328 330 329 327 328 325 324 318 319 312 304 302 298 299 302 304 302 298 282 272 272
234 248 251 151 163 214 282 305 305 305 308 311 314 317 320 323 323 326 326 325 324 333 336 338 340 339 335 333 334 333 329 323 319 318 308 309 308 314 308 297 288 291 289 287
213 272 116 187 248 276 287 289 299 305 311 312 315 319 323 323 325 326 325 323 329 339 338 341 345 344 339 337 333 322 327 328 326 326 322 314 316 321 315 316 309 298 293 298
254 229 233 251 260 276 285 287 294 308 312 316 318 321 321 324 325 326 324 323 338 341 341 342 347 343 343 342 346 340 341 344 348 333 341 346 345 338 325 332 319 313 315 318
246 266 266 265 262 284 295 295 301 311 315 320 321 319 322 324 326 323 324 331 340 344 343 343 343 346 352 353 352 354 358 349 351 350 344 350 351 5 8 15 10 2 25 73
237 230 230 281 285 290 292 306 312 315 319 320 320 319 323 324 324 323 323 336 340 342 343 344 345 347 354 358 2 4 6 353 3 8 4 1 4 22 27 35 49 67 72 81
246 224 241 271 283 286 294 307 312 316 319 318 321 322 324 325 325 325 327 341 339 342 341 341 342 347 353 358 0 2 351 3 9 8 2 20 43 39 42 76 74 69 76 85
212 221 255 253 286 301 299 307 313 319 320 318 319 323 326 327 326 328 331 341 341 341 339 339 343 348 350 358 5 357 351 354 360 0 9 34 52 56 64 88 84 82 82 83
208 221 251 272 287 297 301 314 316 321 323 322 324 328 329 327 327 328 336 344 343 343 342 343 344 347 351 355 360 5 4 358 359 357 20 40 52 65 68 86 94 92 95 92
202 208 219 249 282 297 309 317 319 319 323 323 327 330 329 327 327 330 344 349 347 347 348 348 348 351 350 351 344 342 341 347 5 17 36 48 47 69 90 92 96 99 100 102
189 200 217 254 276 307 318 321 316 314 319 325 327 330 331 332 336 340 349 351 352 358 359 356 357 359 357 349 339 336 340 356 22 23 55 69 64 78 96 100 104 102 104 103
204 196 209 250 290 306 320 329 319 315 319 327 329 333 334 335 337 344 350 352 358 7 12 8 6 6 3 354 347 341 338 336 338 15 77 89 83 85 102 107 107 109 108 105
180 185 209 238 262 305 320 323 320 316 325 330 333 336 334 332 338 344 350 356 1 1 8 8 5 5 8 6 4 4 12 50 60 101 129 122 112 108 109 112 114 108 113 113
179 195 213 234 274 307 321 321 324 319 323 331 335 336 335 336 340 345 352 2 4 356 357 2 5 7 11 14 19 27 29 29 57 131 150 140 148 128 117 113 110 103 110 118
188 205 227 256 287 306 319 324 320 318 324 331 334 333 332 340 342 345 354 358 3 0 1 4 9 11 15 24 56 55 57 58 59 95 127 148 151 146 136 130 121 115 125 130
199 215 240 256 286 296 311 319 314 319 325 329 335 331 329 338 346 346 358 356 359 3 7 10 11 14 17 63 58 55 63 53 78 96 116 136 143 142 136 129 122 129 135 139
210 226 249 271 290 297 313 315 310 316 325 329 332 330 331 339 344 343 349 0 2 7 11 14 17 20 48 70 58 73 81 83 88 91 109 126 132 138 132 123 123 129 142 142
221 240 261 274 294 304 304 296 309 315 324 329 329 327 333 340 350 346 348 0 6 11 20 25 32 40 86 75 28 47 88 89 103 107 110 124 125 145 138 129 134 127 131 135
234 254 275 286 299 304 294 296 319 318 326 329 336 330 335 338 344 347 356 7 17 29 37 43 55 79 71 56 40 75 101 97 87 116 121 136 128 127 141 134 135 133 132 129
252 272 279 287 295 298 290 305 313 321 325 331 329 328 337 348 349 353 7 21 30 42 50 58 69 80 74 57 52 96 95 104 89 117 128 134 129 130 131 112 128 140 138 127
271 274 279 284 289 285 290 304 320 321 325 324 319 310 339 352 357 9 36 48 61 61 56 65 75 83 67 71 68 90 94 93 91 125 121 130 121 128 126 111 119 134 131 115